Total_Precipitation_Accumulation
0.61 0.78 0.90 0.91 0.95 1.00 1.03 0.99 0.97 0.94 0.93 0.90 0.90 0.98 1.01 0.94 0.88 0.95 0.97 0.92 0.90 0.83 0.80 0.82 0.78 0.75 0.83 0.87 0.92 0.91 0.86 0.89 0.92 0.54 0.43 0.47 0.61 0.72 0.78 0.74 0.72 0.70 0.69
0.55 0.66 0.78 0.89 0.94 1.00 0.98 1.01 1.06 1.04 0.97 0.89 0.86 0.93 1.00 0.99 0.91 0.90 0.93 0.91 0.92 0.89 0.84 0.86 0.85 0.82 0.86 0.89 0.97 0.97 0.89 0.83 0.90 0.75 0.58 0.62 0.71 0.80 0.83 0.81 0.80 0.77 0.68
0.55 0.64 0.74 0.86 0.89 0.93 0.90 0.93 1.08 1.19 1.14 1.00 0.91 0.94 1.02 1.07 1.01 0.91 0.92 0.92 0.88 0.84 0.82 0.87 0.90 0.91 0.86 0.87 0.97 1.02 0.96 0.91 0.93 0.93 0.74 0.67 0.77 0.88 0.99 0.98 0.92 0.91 0.80
0.52 0.62 0.70 0.80 0.82 0.82 0.82 0.83 0.95 1.12 1.21 1.13 1.00 0.95 1.01 1.13 1.16 1.13 1.12 1.04 0.94 0.83 0.74 0.76 0.85 0.98 1.00 1.02 1.06 1.05 1.07 1.12 1.10 1.08 0.94 0.83 0.88 0.97 1.10 1.16 1.12 1.06 0.99
0.52 0.59 0.62 0.69 0.78 0.78 0.76 0.80 0.89 1.02 1.09 1.11 1.08 1.01 1.02 1.22 1.45 1.61 1.50 1.21 1.00 0.88 0.73 0.68 0.78 1.02 1.20 1.37 1.43 1.33 1.34 1.46 1.43 1.38 1.25 1.10 1.01 1.07 1.17 1.16 1.22 1.15 1.13
0.52 0.57 0.59 0.66 0.77 0.81 0.75 0.78 0.89 1.00 1.04 1.05 1.04 1.02 1.01 1.19 1.55 1.77 1.45 1.10 0.96 0.89 0.82 0.72 0.77 1.01 1.15 1.27 1.40 1.40 1.45 1.63 1.73 1.67 1.52 1.31 1.02 0.93 1.00 1.19 1.39 1.52 1.46
0.51 0.53 0.58 0.67 0.71 0.79 0.79 0.81 0.91 1.00 1.03 1.02 0.99 0.97 0.94 1.01 1.35 1.58 1.34 1.04 0.93 0.88 0.83 0.78 0.79 0.89 1.02 1.05 1.14 1.17 1.20 1.39 1.63 1.73 1.67 1.31 1.09 0.99 1.17 1.40 1.48 1.58 1.47
0.52 0.49 0.55 0.64 0.67 0.77 0.82 0.83 0.94 1.02 1.00 0.99 0.98 0.95 0.91 0.94 1.22 1.48 1.31 1.04 0.95 0.89 0.88 0.81 0.75 0.80 0.92 1.08 1.15 1.11 1.03 1.11 1.35 1.54 1.73 1.52 1.31 1.33 1.58 1.83 1.94 1.97 1.74
0.54 0.48 0.50 0.59 0.65 0.74 0.80 0.87 0.94 1.02 0.98 0.96 0.94 0.96 0.90 0.88 1.12 1.49 1.39 1.08 1.00 0.93 0.92 0.86 0.77 0.73 0.90 1.06 1.05 1.02 0.95 0.99 1.12 1.32 1.47 1.53 1.55 1.69 1.98 2.36 2.53 2.51 2.26
0.52 0.45 0.47 0.54 0.58 0.66 0.74 0.84 0.92 0.92 0.91 0.93 0.88 0.89 0.87 0.82 0.97 1.39 1.51 1.13 1.03 0.95 0.94 0.90 0.96 0.93 1.01 1.03 0.95 1.00 1.09 0.99 0.95 0.99 1.04 1.09 1.15 1.30 1.69 2.12 2.43 2.52 2.31
0.50 0.46 0.48 0.52 0.56 0.63 0.72 0.76 0.83 0.87 0.86 0.91 0.90 0.87 0.85 0.83 0.87 1.14 1.49 1.23 1.06 0.95 0.96 0.96 0.92 1.05 1.06 1.02 1.00 0.98 1.15 1.08 0.99 1.06 1.04 0.98 0.97 1.07 1.24 1.58 2.06 2.41 2.41
0.46 0.48 0.53 0.57 0.59 0.63 0.68 0.67 0.71 0.81 0.85 0.88 0.92 0.94 0.91 0.86 0.90 1.10 1.30 1.27 1.16 0.97 0.94 0.87 0.86 1.01 1.05 1.08 1.05 1.08 1.13 1.13 1.07 1.07 1.01 0.93 0.94 1.02 1.16 1.35 1.62 1.94 2.08
0.45 0.48 0.54 0.61 0.64 0.66 0.65 0.65 0.69 0.76 0.83 0.87 0.89 0.91 0.93 0.89 0.94 1.13 1.13 1.16 1.16 1.05 1.04 1.07 1.02 1.10 1.13 1.05 1.01 1.05 1.03 0.98 1.06 1.08 0.97 0.84 0.82 0.92 1.02 1.12 1.24 1.46 1.67
0.45 0.47 0.52 0.57 0.63 0.67 0.63 0.61 0.63 0.71 0.81 0.83 0.85 0.83 0.83 0.86 1.00 1.12 1.03 1.03 1.10 1.16 1.18 1.16 1.16 1.17 1.14 1.08 1.01 0.92 0.85 0.87 0.96 0.98 0.91 0.81 0.74 0.78 0.90 1.01 1.12 1.24 1.51
0.42 0.43 0.47 0.49 0.60 0.70 0.69 0.64 0.63 0.63 0.78 0.86 0.82 0.80 0.84 0.95 1.10 1.19 1.09 1.07 1.12 1.19 1.27 1.31 1.25 1.20 1.19 1.08 0.94 0.83 0.79 0.84 0.88 0.84 0.85 0.85 0.81 0.80 0.82 0.90 1.08 1.19 1.37
0.41 0.41 0.43 0.47 0.55 0.64 0.68 0.70 0.76 0.74 0.77 0.76 0.75 0.80 0.80 0.94 1.05 1.05 1.06 1.09 1.17 1.25 1.30 1.29 1.13 0.98 0.94 0.90 0.84 0.78 0.75 0.74 0.73 0.76 0.82 0.82 0.81 0.83 0.83 0.85 0.99 1.16 1.29
0.42 0.43 0.44 0.48 0.53 0.59 0.61 0.62 0.72 0.83 0.86 0.80 0.74 0.75 0.82 0.90 0.93 0.95 1.00 1.06 1.12 1.13 1.09 0.97 0.87 0.82 0.78 0.75 0.72 0.70 0.69 0.65 0.65 0.71 0.76 0.78 0.76 0.80 0.84 0.87 0.93 1.07 1.19
0.43 0.47 0.51 0.50 0.53 0.59 0.59 0.57 0.60 0.67 0.74 0.78 0.79 0.77 0.80 0.85 0.90 0.92 0.96 1.09 1.13 0.97 0.83 0.81 0.79 0.77 0.79 0.81 0.77 0.74 0.70 0.69 0.69 0.67 0.68 0.70 0.73 0.80 0.83 0.83 0.88 1.00 1.09
0.46 0.49 0.53 0.52 0.55 0.60 0.60 0.59 0.59 0.60 0.63 0.67 0.74 0.82 0.88 0.89 0.91 0.94 0.94 0.94 0.92 0.85 0.76 0.75 0.75 0.77 0.82 0.83 0.78 0.74 0.72 0.68 0.65 0.64 0.63 0.62 0.65 0.73 0.76 0.74 0.81 0.91 1.00
0.51 0.59 0.61 0.56 0.58 0.62 0.64 0.65 0.64 0.63 0.65 0.66 0.68 0.75 0.90 0.97 0.95 0.95 0.91 0.85 0.82 0.78 0.75 0.77 0.76 0.77 0.82 0.84 0.80 0.76 0.74 0.70 0.65 0.62 0.60 0.58 0.59 0.66 0.71 0.72 0.77 0.84 0.87
0.57 0.61 0.67 0.61 0.59 0.66 0.71 0.71 0.69 0.70 0.71 0.68 0.65 0.71 0.94 1.00 0.90 0.79 0.79 0.79 0.77 0.77 0.79 0.81 0.81 0.79 0.79 0.80 0.80 0.76 0.72 0.69 0.66 0.63 0.59 0.58 0.60 0.63 0.65 0.70 0.75 0.77 0.82
0.62 0.64 0.66 0.65 0.64 0.69 0.75 0.75 0.74 0.75 0.75 0.72 0.69 0.72 0.83 0.79 0.76 0.75 0.74 0.74 0.74 0.75 0.78 0.83 0.82 0.79 0.79 0.80 0.80 0.78 0.71 0.66 0.64 0.63 0.62 0.60 0.59 0.59 0.59 0.64 0.68 0.72 0.77
0.67 0.71 0.73 0.73 0.68 0.75 0.80 0.78 0.77 0.77 0.76 0.72 0.72 0.72 0.74 0.73 0.74 0.78 0.80 0.78 0.78 0.80 0.78 0.76 0.77 0.75 0.74 0.75 0.76 0.78 0.73 0.63 0.60 0.63 0.66 0.62 0.57 0.55 0.55 0.57 0.58 0.64 0.70
0.75 0.76 0.79 0.79 0.76 0.75 0.79 0.84 0.82 0.80 0.78 0.77 0.76 0.75 0.72 0.73 0.74 0.75 0.78 0.81 0.83 0.82 0.77 0.74 0.73 0.71 0.70 0.72 0.71 0.71 0.68 0.66 0.70 0.71 0.67 0.65 0.60 0.54 0.54 0.55 0.54 0.58 0.66
0.81 0.81 0.83 0.86 0.85 0.83 0.83 0.86 0.84 0.83 0.82 0.79 0.78 0.77 0.74 0.73 0.72 0.72 0.75 0.78 0.81 0.79 0.73 0.71 0.74 0.75 0.72 0.69 0.67 0.66 0.72 0.77 0.82 0.87 0.86 0.79 0.66 0.57 0.55 0.55 0.54 0.56 0.61
0.82 0.82 0.84 0.87 0.88 0.86 0.86 0.89 0.87 0.86 0.86 0.81 0.76 0.76 0.76 0.74 0.72 0.71 0.72 0.75 0.80 0.78 0.72 0.70 0.72 0.74 0.72 0.70 0.70 0.73 0.78 0.79 0.82 0.84 0.87 0.88 0.74 0.60 0.58 0.59 0.56 0.56 0.60